CW8593 Gava ES current weather conditions

sailwx.info

Wind from 144 at 1 knots gusting 6

Air temperature 22.2° C
Dewpoint 15.8° C

Last reported at 2017-May-23 08:02 UTC.
Time now 2017-May-23 08:38 UTC

Location: N 41°18' E 001°60'.
View on Google Maps.

See reports from other nearby stations

  
Tides and Currents Weather Stations Pressure Air Temp Water Temp Dewpoint Dewpoint Depression Visibility Wind Speed Wind Dir Waves Ship Positions
date/time (UTC)wind fromknots sea level pressurealtimeterstation pressurevisibilityair tempwater tempwave heightnotes
2017-May-23 08:02 144 1 gusting 6 22.2
2017-May-23 07:53 120 1 gusting 6 22.2
2017-May-23 07:44 138 1 gusting 6 22.2
2017-May-23 07:35 145 1 gusting 5 21.7
2017-May-23 07:26 142 1 gusting 5 21.7
2017-May-23 07:17 104 1 gusting 4 21.7
2017-May-23 07:08 072 1 gusting 4 21.7
2017-May-23 06:59 056 1 gusting 3 21.1
2017-May-23 06:50 005 0 gusting 3 21.1
2017-May-23 06:41 342 21.1
2017-May-23 06:32 342 20.6
2017-May-23 06:23 342 20.6
2017-May-23 06:14 342 20.0
2017-May-23 06:05 342 19.4
2017-May-23 05:56 342 18.9
2017-May-23 05:47 342 0 gusting 3 18.3
2017-May-23 05:38 342 0 gusting 4 18.3
2017-May-23 05:29 342 1 gusting 4 17.8
2017-May-23 05:20 345 17.2
2017-May-23 05:11 355 17.2
2017-May-23 05:02 17.2
2017-May-23 04:53 355 0 gusting 2 17.2
2017-May-23 04:44 355 2 gusting 5 17.2
2017-May-23 04:35 358 0 gusting 4 16.7
2017-May-23 04:26 001 16.1
2017-May-23 04:17 001 16.7
2017-May-23 04:08 16.7
2017-May-23 03:59 001 16.7
2017-May-23 03:50 16.7
2017-May-23 03:41 16.7
2017-May-23 03:32 16.7
2017-May-23 03:23 001 1 gusting 3 16.7
2017-May-23 03:14 001 1 gusting 2 16.7
2017-May-23 03:05 001 2 gusting 3 16.7
2017-May-23 02:56 001 0 gusting 3 16.7
2017-May-23 02:47 001 0 gusting 2 17.2
2017-May-23 02:38 001 1 gusting 2 17.2
2017-May-23 02:29 001 1 gusting 4 17.2
2017-May-23 02:20 001 1 gusting 3 17.2
2017-May-23 02:11 344 0 gusting 3 17.8
2017-May-23 02:02 311 2 gusting 4 17.8
2017-May-23 01:53 313 1 gusting 6 17.8
2017-May-23 01:44 314 2 gusting 5 17.8
2017-May-23 01:35 314 2 gusting 5 17.8
2017-May-23 01:26 319 2 gusting 5 17.8
2017-May-23 01:17 315 1 gusting 4 17.8
2017-May-23 01:08 299 1 gusting 3 18.3
2017-May-23 00:59 294 0 gusting 3 18.3
2017-May-23 00:50 269 0 gusting 3 18.3
2017-May-23 00:41 184 0 gusting 3 18.3
2017-May-23 00:32 183 0 gusting 2 18.3
2017-May-23 00:23 182 18.3
2017-May-23 00:14 182 17.8
2017-May-23 00:05 182 0 gusting 0 17.8
2017-May-22 23:56 182 0 gusting 3 17.8
2017-May-22 23:47 182 0 gusting 2 17.8
2017-May-22 23:38 182 0 gusting 3 17.8
2017-May-22 23:29 182 17.8
2017-May-22 23:20 182 18.3
2017-May-22 23:11 182 18.3
2017-May-22 23:02 182 18.3
2017-May-22 22:53 18.3
2017-May-22 22:44 182 0 gusting 0 18.3
2017-May-22 22:35 182 0 gusting 2 17.8
2017-May-22 22:26 182 0 gusting 2 17.8
2017-May-22 22:17 182 1 gusting 2 17.8
2017-May-22 22:08 182 0 gusting 3 17.8
2017-May-22 21:59 182 17.8
2017-May-22 21:50 182 1 gusting 2 17.8
2017-May-22 21:41 182 1 gusting 3 17.8
2017-May-22 21:32 182 1 gusting 3 17.8
2017-May-22 21:23 181 18.3
2017-May-22 21:14 181 18.3
2017-May-22 21:05 181 18.3
2017-May-22 20:56 181 18.3
2017-May-22 20:47 181 0 gusting 0 18.9
2017-May-22 20:38 181 18.9
2017-May-22 20:29 181 19.4
2017-May-22 20:20 181 19.4
2017-May-22 20:11 19.4
2017-May-22 20:02 181 19.4
2017-May-22 19:53 181 19.4
2017-May-22 19:44 181 0 gusting 1 19.4
2017-May-22 19:35 181 0 gusting 3 19.4
2017-May-22 19:26 181 20.0
2017-May-22 19:17 181 0 gusting 2 20.0
2017-May-22 19:08 181 0 gusting 3 20.6
2017-May-22 18:59 181 0 gusting 2 20.6
2017-May-22 18:50 181 20.6
2017-May-22 18:41 181 0 gusting 2 20.6
2017-May-22 18:32 181 1 gusting 3 20.6
2017-May-22 18:23 186 2 gusting 5 20.6
2017-May-22 18:14 157 2 gusting 6 21.1
2017-May-22 18:05 143 2 gusting 6 21.1
2017-May-22 17:56 145 2 gusting 6 21.1
2017-May-22 17:47 148 2 gusting 5 21.7
2017-May-22 17:38 145 2 gusting 5 21.7
2017-May-22 17:29 156 1 gusting 5 21.7
2017-May-22 17:20 165 1 gusting 5 21.7
2017-May-22 17:11 162 2 gusting 5 21.7
2017-May-22 17:02 148 3 gusting 7 21.7
2017-May-22 16:53 162 4 gusting 6 21.7
2017-May-22 16:44 155 4 gusting 6 21.7
2017-May-22 16:35 153 3 gusting 8 22.2
2017-May-22 16:26 169 3 gusting 8 22.2
2017-May-22 16:17 150 3 gusting 10 22.2
2017-May-22 16:08 167 3 gusting 10 22.2
2017-May-22 15:59 181 4 gusting 9 22.2
2017-May-22 15:50 214 4 gusting 9 22.8
2017-May-22 15:41 192 4 gusting 8 22.8
2017-May-22 15:32 226 5 gusting 11 22.2
2017-May-22 15:23 214 6 gusting 11 22.2
2017-May-22 15:14 205 6 gusting 11 22.2
2017-May-22 15:05 196 6 gusting 13 22.2
2017-May-22 14:56 215 6 gusting 13 22.8
2017-May-22 14:47 202 6 gusting 13 21.7
2017-May-22 14:38 205 6 gusting 12 22.2
2017-May-22 14:29 209 6 gusting 12 21.7
2017-May-22 14:20 204 6 gusting 13 21.7
2017-May-22 14:11 169 6 gusting 13 21.7
2017-May-22 14:02 164 6 gusting 12 21.7
2017-May-22 13:53 162 7 gusting 14 21.7
2017-May-22 13:44 163 6 gusting 14 21.1
2017-May-22 13:35 160 6 gusting 13 21.7
2017-May-22 13:26 190 6 gusting 13 21.7
2017-May-22 13:17 182 6 gusting 15 21.1
2017-May-22 13:08 181 6 gusting 14 21.7
2017-May-22 12:59 162 6 gusting 14 21.1
2017-May-22 12:50 155 6 gusting 16 21.7
2017-May-22 12:41 188 6 gusting 11 22.2
2017-May-22 12:32 183 6 gusting 14 21.7
2017-May-22 12:23 185 6 gusting 14 21.7
2017-May-22 12:14 189 6 gusting 14 21.7
2017-May-22 12:05 176 6 gusting 11 22.2
2017-May-22 11:56 166 5 gusting 11 21.7
2017-May-22 11:47 160 6 gusting 12 21.7
2017-May-22 11:38 160 6 gusting 13 21.7
2017-May-22 11:29 157 6 gusting 13 21.1
2017-May-22 11:20 156 6 gusting 13 21.1
2017-May-22 11:11 158 5 gusting 11 21.7
2017-May-22 11:02 189 6 gusting 11 21.1
2017-May-22 10:53 190 4 gusting 11 21.1
2017-May-22 10:44 192 5 gusting 11 21.1
2017-May-22 10:35 175 5 gusting 11 21.1
2017-May-22 10:26 187 4 gusting 9 21.1
2017-May-22 10:17 186 5 gusting 11 21.1
2017-May-22 10:08 181 6 gusting 13 20.6
2017-May-22 09:59 188 6 gusting 12 20.6
2017-May-22 09:50 159 6 gusting 13 20.6
2017-May-22 09:41 155 6 gusting 13 20.6
2017-May-22 09:32 154 6 gusting 11 20.6
2017-May-22 09:23 150 5 gusting 11 20.6
2017-May-22 09:14 177 3 gusting 11 20.6
2017-May-22 09:05 208 4 gusting 10 20.6
2017-May-22 08:56 175 5 gusting 9 20.6
2017-May-22 08:47 158 5 gusting 10 20.0
2017-May-22 08:38 159 4 gusting 11 20.6
2017-May-22 08:29 158 5 gusting 7 20.6
2017-May-22 08:20 160 4 gusting 9 20.0
2017-May-22 08:11 149 3 gusting 8 20.6
2017-May-22 08:02 136 2 gusting 7 20.6
2017-May-22 07:53 152 1 gusting 6 20.6
2017-May-22 07:44 170 2 gusting 6 20.6
2017-May-22 07:35 143 1 gusting 6 20.6
2017-May-22 07:26 143 1 gusting 5 20.0
2017-May-22 07:17 143 1 gusting 5 20.0
2017-May-22 07:08 121 0 gusting 4 20.0
2017-May-22 06:59 054 0 gusting 3 19.4
2017-May-22 06:50 352 0 gusting 4 19.4
2017-May-22 06:41 276 19.4
2017-May-22 06:32 273 18.9
2017-May-22 06:23 273 18.3
2017-May-22 06:14 273 17.8
2017-May-22 06:05 273 17.8
2017-May-22 05:56 17.2
2017-May-22 05:47 17.2
2017-May-22 05:38 17.2
2017-May-22 05:29 17.2
2017-May-22 05:20 273 0 gusting 1 16.7
2017-May-22 05:11 273 16.7
2017-May-22 05:02 16.7
2017-May-22 04:53 16.7
2017-May-22 04:44 16.7
2017-May-22 04:35 16.7
2017-May-22 04:26 16.7
2017-May-22 04:17 16.7
2017-May-22 04:08 16.7
2017-May-22 03:59 273 16.7
2017-May-22 03:50 273 16.7
2017-May-22 03:41 273 17.2
2017-May-22 03:32 17.2
2017-May-22 03:23 17.2
2017-May-22 03:14 273 17.2
2017-May-22 03:05 273 17.2
2017-May-22 02:56 273 17.2
2017-May-22 02:47 273 17.2
2017-May-22 02:38 273 17.2
2017-May-22 02:29 273 17.2
2017-May-22 02:20 17.2
2017-May-22 02:11 273 0 gusting 1 17.2
2017-May-22 02:02 273 0 gusting 2 16.7
2017-May-22 01:53 273 0 gusting 2 16.7
2017-May-22 01:44 273 0 gusting 2 16.7
2017-May-22 01:35 273 0 gusting 2 16.7
2017-May-22 01:26 273 1 gusting 3 16.7
2017-May-22 01:17 273 1 gusting 3 16.7
2017-May-22 01:08 273 0 gusting 3 17.2
2017-May-22 00:59 273 17.8
2017-May-22 00:50 17.8
2017-May-22 00:41 273 17.8
2017-May-22 00:32 273 17.8
2017-May-22 00:23 273 17.8
2017-May-22 00:14 273 17.8
2017-May-22 00:05 273 18.3
2017-May-21 23:56 18.3
2017-May-21 23:47 273 0 gusting 3 18.3
2017-May-21 23:38 273 18.3
2017-May-21 23:29 273 18.3
2017-May-21 23:20 273 18.3
2017-May-21 23:11 273 0 gusting 1 18.3
2017-May-21 23:02 267 1 gusting 4 18.3
2017-May-21 22:53 258 0 gusting 4 18.9
2017-May-21 22:44 257 18.9
2017-May-21 22:35 257 18.9
2017-May-21 22:26 257 18.9
2017-May-21 22:17 257 19.4
2017-May-21 22:08 257 19.4
2017-May-21 21:59 256 18.9
2017-May-21 21:50 257 18.9
2017-May-21 21:41 257 0 gusting 2 18.9
2017-May-21 21:32 257 18.3
2017-May-21 21:23 257 18.3
2017-May-21 21:14 257 18.3
2017-May-21 21:05 257 18.3
2017-May-21 20:56 256 0 gusting 0 18.9
2017-May-21 20:47 257 18.9
2017-May-21 20:38 257 18.9
2017-May-21 20:29 19.4
2017-May-21 20:20 19.4
2017-May-21 20:11 257 19.4
2017-May-21 20:02 257 19.4
2017-May-21 19:53 257 19.4
2017-May-21 19:44 257 19.4
2017-May-21 19:35 257 19.4
2017-May-21 19:26 256 20.0
2017-May-21 19:17 256 0 gusting 2 20.0
2017-May-21 19:08 257 0 gusting 3 20.0
2017-May-21 18:59 256 0 gusting 3 20.0
2017-May-21 18:50 256 0 gusting 4 20.0
2017-May-21 18:41 256 20.0
2017-May-21 18:32 257 0 gusting 2 20.6
2017-May-21 18:23 253 0 gusting 4 20.6
2017-May-21 18:14 217 0 gusting 4 20.6
2017-May-21 18:05 208 1 gusting 4 20.6
2017-May-21 17:56 212 2 gusting 6 20.0
2017-May-21 17:47 221 3 gusting 7 20.0
2017-May-21 17:38 216 4 gusting 7 20.0
2017-May-21 17:29 205 4 gusting 10 20.6
2017-May-21 17:20 205 5 gusting 10 20.0
2017-May-21 17:11 195 6 gusting 13 20.0
2017-May-21 17:02 203 6 gusting 16 20.0
2017-May-21 16:53 206 6 gusting 13 20.0
2017-May-21 16:44 202 7 gusting 16 20.0
2017-May-21 16:35 199 8 gusting 16 20.0
2017-May-21 16:26 202 9 gusting 19 20.0
2017-May-21 16:17 199 6 gusting 19 20.0
2017-May-21 16:08 206 6 gusting 13 20.6
2017-May-21 15:59 207 8 gusting 14 20.6
2017-May-21 15:50 203 9 gusting 15 20.0
2017-May-21 15:41 211 7 gusting 15 20.6
2017-May-21 15:32 204 6 gusting 15 21.1
2017-May-21 15:23 204 6 gusting 13 21.7
2017-May-21 15:14 204 7 gusting 17 21.1
2017-May-21 15:05 209 6 gusting 15 21.1
2017-May-21 14:56 210 6 gusting 15 21.1
2017-May-21 14:47 206 6 gusting 15 21.1
2017-May-21 14:38 199 7 gusting 19 21.1
2017-May-21 14:29 207 7 gusting 14 20.6
2017-May-21 14:20 202 6 gusting 13 20.6
2017-May-21 14:11 182 6 gusting 13 20.6
2017-May-21 14:02 200 6 gusting 14 20.6
2017-May-21 13:53 203 8 gusting 14 20.6
2017-May-21 13:44 209 6 gusting 14 20.6
2017-May-21 13:35 179 7 gusting 14 20.6
2017-May-21 13:26 201 6 gusting 14 20.6
2017-May-21 13:17 203 7 gusting 14 20.6
2017-May-21 13:08 208 6 gusting 14 20.6
2017-May-21 12:59 182 5 gusting 12 21.1
2017-May-21 12:50 189 6 gusting 13 20.6
2017-May-21 12:41 159 6 gusting 13 20.6
2017-May-21 12:32 170 7 gusting 14 20.6
2017-May-21 12:23 172 7 gusting 14 20.6
2017-May-21 12:14 166 7 gusting 13 20.0
2017-May-21 12:05 162 6 gusting 12 20.0
2017-May-21 11:56 181 6 gusting 16 20.0
2017-May-21 11:47 183 6 gusting 13 20.0
2017-May-21 11:38 184 6 gusting 14 20.6
2017-May-21 11:29 192 6 gusting 13 20.6
2017-May-21 11:20 202 7 gusting 14 20.6
2017-May-21 11:11 202 7 gusting 17 20.0
2017-May-21 11:02 203 6 gusting 15 20.6
2017-May-21 10:53 206 5 gusting 13 20.6
2017-May-21 10:44 199 6 gusting 11 20.6
2017-May-21 10:35 193 7 gusting 15 20.0
2017-May-21 10:26 206 6 gusting 13 20.0
2017-May-21 10:17 203 6 gusting 13 20.0
2017-May-21 10:08 211 6 gusting 13 20.6
2017-May-21 09:59 198 5 gusting 13 20.0
2017-May-21 09:50 170 5 gusting 12 20.0
2017-May-21 09:41 158 5 gusting 13 20.0
2017-May-21 09:32 173 5 gusting 13 20.0
2017-May-21 09:23 158 5 gusting 9 20.0
2017-May-21 09:14 156 5 gusting 11 19.4
2017-May-21 09:05 161 3 gusting 9 20.0
2017-May-21 08:56 175 3 gusting 6 20.0
2017-May-21 08:47 150 4 gusting 6 20.0
2017-May-21 08:38 156 3 gusting 7 20.0
2017-May-21 08:29 148 2 gusting 6 20.0
2017-May-21 08:20 163 1 gusting 6 20.6
2017-May-21 08:11 124 2 gusting 6 20.0
2017-May-21 08:02 141 1 gusting 6 20.0